{"data":{"norad_id":57849,"intl_designator":"2023-141K","name":"STARLINK-30430","alt_names":[],"object_type":"PAYLOAD","status":"ACTIVE","operator":null,"country":"US","launch_date":"2023-09-12","launch_site_code":"AFWTR","launch_vehicle":null,"mission":null,"orbit_class":"UNKNOWN","rcs_meters":null,"size_class":null,"mass_kg":null,"dimensions":null,"purposes":["comms"],"wikipedia_slug":null,"has_3d_model":false,"image_url":null,"decayed_at":null,"tle_current":{"epoch":"2026-09-20T20:08:21.230304Z","epoch_age_seconds":105336,"freshness":"FRESH","line1":"1 57849U 23141K   26263.83913461 -.00004278  00000+0 -12606-3 0  9998","line2":"2 57849  53.1564  96.4422 0001294  88.8035 271.3115 15.31726546170226","mean_motion":15.31726546,"eccentricity":0.0001294,"inclination_deg":53.1564,"raan_deg":96.4422,"arg_perigee_deg":88.8035,"mean_anomaly_deg":271.3115,"bstar":-0.00012606,"rev_number":17022,"period_min":94.01155864018,"perigee_km":469.77462968023,"apogee_km":471.54709856746,"semimajor_km":6848.7978641238,"source":"CELESTRAK","updated_at":"2026-09-21T09:00:33.712782Z"}}}